| time (UTC) | temp F | wind direction | speed knots | gust knots | rain 1hr in | rain 24hr in | rain mn in | humidity % | barometer mb |
| 20260901175002 | 93 | 20 | 1.7 | 4.3 | 0.00 | 0.00 | 0.00 | 60 | 1016.2 |
| 20260901174002 | 93 | 72 | 0.9 | 5.2 | 0.00 | 0.00 | 0.00 | 61 | 1016.2 |
| 20260901173002 | 93 | 360 | 0.9 | 4.3 | 0.00 | 0.00 | 0.00 | 64 | 1016.2 |
| 20260901172002 | 93 | 8 | 0.9 | 5.2 | 0.00 | 0.00 | 0.00 | 61 | 1016.3 |
| 20260901171023 | 93 | 5 | 1.7 | 5.2 | 0.00 | 0.00 | 0.00 | 60 | 1016.3 |
| 20260901170044 | 93 | 326 | 1.7 | 7.0 | 0.00 | 0.00 | 0.00 | 63 | 1016.4 |
| 20260901165002 | 92 | 18 | 1.7 | 4.3 | 0.00 | 0.00 | 0.00 | 63 | 1016.5 |
| 20260901164105 | 92 | 13 | 0.9 | 4.3 | 0.00 | 0.00 | 0.00 | 63 | 1016.5 |
| 20260901163023 | 92 | 92 | 1.7 | 4.3 | 0.00 | 0.00 | 0.00 | 63 | 1016.6 |
| 20260901162002 | 93 | 154 | 1.7 | 5.2 | 0.00 | 0.00 | 0.00 | 63 | 1016.8 |
| 20260901161023 | 93 | 136 | 0.9 | 5.2 | 0.00 | 0.00 | 0.00 | 65 | 1016.7 |
| 20260901160044 | 92 | 79 | 0.9 | 3.5 | 0.00 | 0.00 | 0.00 | 64 | 1016.9 |
| 20260901155002 | 92 | 1 | 1.7 | 7.0 | 0.00 | 0.00 | 0.00 | 64 | 1016.9 |
| 20260901154044 | 92 | 106 | 0.9 | 3.5 | 0.00 | 0.00 | 0.00 | 65 | 1017.1 |
| 20260901153023 | 92 | 166 | 0.0 | 3.5 | 0.00 | 0.00 | 0.00 | 66 | 1017.2 |
| 20260901152002 | 91 | 171 | 0.9 | 3.5 | 0.00 | 0.00 | 0.00 | 64 | 1017.2 |
| 20260901151002 | 91 | 168 | 0.9 | 4.3 | 0.00 | 0.00 | 0.00 | 67 | 1017.4 |
| 20260901150044 | 91 | 167 | 0.0 | 3.5 | 0.00 | 0.00 | 0.00 | 66 | 1017.6 |
| 20260901145044 | 90 | 82 | 0.9 | 4.3 | 0.00 | 0.00 | 0.00 | 67 | 1017.6 |
| 20260901144023 | 90 | 20 | 0.9 | 1.7 | 0.00 | 0.00 | 0.00 | 66 | 1017.6 |
| 20260901143002 | 89 | 177 | 0.9 | 4.3 | 0.00 | 0.00 | 0.00 | 72 | 1017.6 |
| 20260901142002 | 88 | 184 | 0.9 | 2.6 | 0.00 | 0.00 | 0.00 | 72 | 1017.6 |
| 20260901141023 | 87 | 181 | 0.9 | 2.6 | 0.00 | 0.00 | 0.00 | 74 | 1017.6 |
| 20260901140002 | 86 | 182 | 0.9 | 3.5 | 0.00 | 0.00 | 0.00 | 75 | 1017.6 |
| 20260901135003 | 85 | 179 | 0.9 | 2.6 | 0.00 | 0.00 | 0.00 | 77 | 1017.7 |
| 20260901134002 | 84 | 195 | 0.0 | 2.6 | 0.00 | 0.00 | 0.00 | 81 | 1017.6 |
| 20260901133002 | 82 | 0 | 0.0 | 0.0 | 0.00 | 0.00 | 0.00 | 85 | 1017.6 |
| 20260901132024 | 80 | 0 | 0.0 | 0.0 | 0.00 | 0.00 | 0.00 | 90 | 1017.6 |
| 20260901131024 | 78 | 0 | 0.0 | 0.0 | 0.00 | 0.00 | 0.00 | 95 | 1017.8 |
| 20260901130002 | 77 | 0 | 0.0 | 0.0 | 0.00 | 0.00 | 0.00 | 96 | 1018.0 |
| 20260901125024 | 76 | 275 | 0.0 | 0.9 | 0.00 | 0.00 | 0.00 | 97 | 1018.0 |
| 20260901124002 | 75 | 275 | 0.0 | 0.9 | 0.00 | 0.00 | 0.00 | 97 | 1018.1 |
| 20260901123003 | 74 | 0 | 0.0 | 0.0 | 0.00 | 0.00 | 0.00 | 96 | 1018.1 |
| 20260901122045 | 74 | 0 | 0.0 | 0.0 | 0.00 | 0.00 | 0.00 | 96 | 1018.1 |
| 20260901121023 | 74 | 0 | 0.0 | 0.0 | 0.00 | 0.00 | 0.00 | 96 | 1018.1 |
| 20260901120003 | 74 | 0 | 0.0 | 0.0 | 0.00 | 0.00 | 0.00 | 96 | 1017.9 |
| 20260901115045 | 74 | 0 | 0.0 | 0.0 | 0.00 | 0.00 | 0.00 | 96 | 1017.9 |
| 20260901114003 | 74 | 0 | 0.0 | 0.0 | 0.00 | 0.00 | 0.00 | 96 | 1017.8 |
| 20260901113003 | 74 | 89 | 0.0 | 2.6 | 0.00 | 0.00 | 0.00 | 96 | 1017.6 |
| 20260901112003 | 74 | 0 | 0.0 | 0.0 | 0.00 | 0.00 | 0.00 | 96 | 1017.5 |
| 20260901111003 | 73 | 0 | 0.0 | 0.0 | 0.00 | 0.00 | 0.00 | 96 | 1017.4 |
| 20260901110024 | 73 | 0 | 0.0 | 0.0 | 0.00 | 0.00 | 0.00 | 95 | 1017.4 |
| 20260901105024 | 74 | 0 | 0.0 | 0.0 | 0.00 | 0.00 | 0.00 | 95 | 1017.4 |
| 20260901104003 | 74 | 0 | 0.0 | 0.0 | 0.00 | 0.00 | 0.00 | 95 | 1017.4 |
| 20260901103003 | 74 | 0 | 0.0 | 0.0 | 0.00 | 0.00 | 0.00 | 95 | 1017.2 |
| 20260901102003 | 73 | 0 | 0.0 | 0.0 | 0.00 | 0.00 | 0.00 | 95 | 1017.1 |
| 20260901101003 | 74 | 0 | 0.0 | 0.0 | 0.00 | 0.00 | 0.00 | 95 | 1017.1 |
| 20260901100003 | 74 | 0 | 0.0 | 0.0 | 0.00 | 0.00 | 0.00 | 95 | 1017.1 |
| 20260901095045 | 74 | 0 | 0.0 | 0.0 | 0.00 | 0.00 | 0.00 | 95 | 1017.1 |
| 20260901094024 | 74 | 0 | 0.0 | 0.0 | 0.00 | 0.00 | 0.00 | 95 | 1017.1 |
| 20260901093003 | 74 | 0 | 0.0 | 0.0 | 0.00 | 0.00 | 0.00 | 95 | 1017.2 |
| 20260901092024 | 74 | 0 | 0.0 | 0.0 | 0.00 | 0.00 | 0.00 | 94 | 1017.4 |
| 20260901091001 | 74 | 0 | 0.0 | 0.0 | 0.00 | 0.00 | 0.00 | 94 | 1017.5 |
| 20260901090021 | 74 | 0 | 0.0 | 0.0 | 0.00 | 0.00 | 0.00 | 94 | 1017.4 |
| 20260901085000 | 74 | 0 | 0.0 | 0.0 | 0.00 | 0.00 | 0.00 | 95 | 1017.5 |
| 20260901084001 | 75 | 0 | 0.0 | 0.0 | 0.00 | 0.00 | 0.00 | 95 | 1017.5 |
| 20260901083022 | 75 | 0 | 0.0 | 0.0 | 0.00 | 0.00 | 0.00 | 95 | 1017.5 |
| 20260901082043 | 75 | 0 | 0.0 | 0.0 | 0.00 | 0.00 | 0.00 | 95 | 1017.5 |
| 20260901081022 | 75 | 0 | 0.0 | 0.0 | 0.00 | 0.00 | 0.00 | 95 | 1017.4 |
| 20260901080001 | 75 | 0 | 0.0 | 0.0 | 0.00 | 0.00 | 0.00 | 95 | 1017.4 |
| 20260901075022 | 75 | 0 | 0.0 | 0.0 | 0.00 | 0.00 | 0.00 | 95 | 1017.4 |
| 20260901074001 | 75 | 0 | 0.0 | 0.0 | 0.00 | 0.00 | 0.00 | 95 | 1017.6 |
| 20260901073022 | 75 | 0 | 0.0 | 0.0 | 0.00 | 0.00 | 0.00 | 95 | 1017.7 |
| 20260901072001 | 75 | 0 | 0.0 | 0.0 | 0.00 | 0.00 | 0.00 | 95 | 1017.7 |
| 20260901071001 | 75 | 0 | 0.0 | 0.0 | 0.00 | 0.00 | 0.00 | 95 | 1017.8 |
| 20260901070022 | 75 | 29 | 0.0 | 0.9 | 0.00 | 0.00 | 0.00 | 95 | 1017.8 |
| 20260901065001 | 75 | 29 | 0.0 | 0.9 | 0.00 | 0.00 | 0.00 | 95 | 1017.8 |
| 20260901064001 | 75 | 0 | 0.0 | 0.0 | 0.00 | 0.00 | 0.00 | 95 | 1017.9 |
| 20260901063022 | 75 | 0 | 0.0 | 0.0 | 0.00 | 0.00 | 0.00 | 95 | 1018.1 |
| 20260901062043 | 75 | 0 | 0.0 | 0.0 | 0.00 | 0.00 | 0.00 | 95 | 1018.0 |
| 20260901061001 | 75 | 0 | 0.0 | 0.0 | 0.00 | 0.00 | 0.00 | 95 | 1018.1 |
| 20260901060022 | 75 | 0 | 0.0 | 0.0 | 0.00 | 0.00 | 0.00 | 95 | 1018.0 |
| 20260901055001 | 75 | 0 | 0.0 | 0.0 | 0.00 | 0.00 | 0.00 | 95 | 1018.1 |
| 20260901054001 | 75 | 29 | 0.0 | 0.9 | 0.00 | 0.00 | 0.00 | 95 | 1018.3 |
| 20260901053001 | 75 | 29 | 0.0 | 0.9 | 0.00 | 0.00 | 0.00 | 95 | 1018.3 |
| 20260901052043 | 75 | 29 | 0.0 | 0.9 | 0.00 | 0.00 | 0.00 | 95 | 1018.5 |
| 20260901051001 | 75 | 29 | 0.0 | 1.7 | 0.00 | 0.00 | 0.00 | 94 | 1018.4 |
| 20260901050104 | 75 | 29 | 0.0 | 0.9 | 0.00 | 0.00 | 0.00 | 94 | 1018.4 |
| 20260901045001 | 75 | 29 | 0.0 | 0.9 | 0.00 | 0.00 | 0.00 | 94 | 1018.6 |
| 20260901044022 | 75 | 0 | 0.0 | 0.0 | 0.00 | 0.00 | 0.00 | 94 | 1018.6 |
| 20260901043001 | 75 | 0 | 0.0 | 0.0 | 0.00 | 0.00 | 0.00 | 94 | 1018.7 |
| 20260901042001 | 75 | 0 | 0.0 | 0.0 | 0.00 | 0.00 | 0.00 | 93 | 1018.7 |
| 20260901041022 | 76 | 0 | 0.0 | 0.0 | 0.00 | 0.00 | 0.00 | 93 | 1018.8 |
| 20260901040001 | 76 | 0 | 0.0 | 0.0 | 0.00 | 0.00 | 0.00 | 93 | 1018.8 |
| 20260901035001 | 76 | 0 | 0.0 | 0.0 | 0.00 | 0.00 | 0.00 | 93 | 1018.8 |
| 20260901034001 | 76 | 0 | 0.0 | 0.0 | 0.00 | 0.00 | 0.00 | 93 | 1018.9 |
| 20260901033022 | 76 | 0 | 0.0 | 0.0 | 0.00 | 0.00 | 0.00 | 93 | 1018.8 |
| 20260901032022 | 76 | 0 | 0.0 | 0.0 | 0.00 | 0.00 | 0.00 | 93 | 1018.8 |
| 20260901031043 | 76 | 0 | 0.0 | 0.0 | 0.00 | 0.00 | 0.00 | 93 | 1018.9 |
| 20260901030104 | 76 | 0 | 0.0 | 0.0 | 0.00 | 0.00 | 0.00 | 93 | 1018.9 |
| 20260901025001 | 76 | 0 | 0.0 | 0.0 | 0.00 | 0.00 | 0.00 | 92 | 1018.9 |
| 20260901024022 | 77 | 0 | 0.0 | 0.0 | 0.00 | 0.00 | 0.00 | 92 | 1018.8 |
| 20260901023001 | 77 | 0 | 0.0 | 0.0 | 0.00 | 0.00 | 0.00 | 92 | 1018.9 |
| 20260901022001 | 77 | 29 | 0.0 | 0.9 | 0.00 | 0.00 | 0.00 | 91 | 1018.9 |
| 20260901021001 | 77 | 0 | 0.0 | 0.0 | 0.00 | 0.00 | 0.00 | 91 | 1018.9 |
| 20260901020022 | 78 | 0 | 0.0 | 0.0 | 0.00 | 0.00 | 0.00 | 91 | 1018.9 |
| 20260901015043 | 78 | 0 | 0.0 | 0.0 | 0.00 | 0.00 | 0.00 | 90 | 1018.8 |
| 20260901014043 | 78 | 0 | 0.0 | 0.0 | 0.00 | 0.00 | 0.00 | 89 | 1018.7 |
| 20260901013001 | 78 | 0 | 0.0 | 0.0 | 0.00 | 0.00 | 0.00 | 89 | 1018.7 |
| 20260901012022 | 79 | 0 | 0.0 | 0.0 | 0.00 | 0.00 | 0.00 | 89 | 1018.6 |
| 20260901011001 | 79 | 0 | 0.0 | 0.0 | 0.00 | 0.00 | 0.00 | 89 | 1018.5 |
| 20260901010001 | 79 | 0 | 0.0 | 0.0 | 0.00 | 0.00 | 0.00 | 88 | 1018.5 |
| 20260901005001 | 80 | 0 | 0.0 | 0.0 | 0.00 | 0.00 | 0.00 | 88 | 1018.3 |
| 20260901004022 | 80 | 0 | 0.0 | 0.0 | 0.00 | 0.00 | 0.00 | 87 | 1018.1 |
| 20260901003022 | 80 | 0 | 0.0 | 0.0 | 0.00 | 0.00 | 0.00 | 87 | 1018.1 |
| 20260901002043 | 80 | 0 | 0.0 | 0.0 | 0.00 | 0.00 | 0.00 | 86 | 1018.1 |
| 20260901001001 | 81 | 0 | 0.0 | 0.0 | 0.00 | 0.00 | 0.00 | 85 | 1018.1 |
| 20260901000001 | 81 | 0 | 0.0 | 0.0 | 0.00 | 0.00 | 0.00 | 84 | 1018.1 |
| 20260831235023 | 82 | 0 | 0.0 | 0.0 | 0.00 | 0.00 | 0.00 | 83 | 1018.1 |
| 20260831234002 | 82 | 0 | 0.0 | 0.0 | 0.00 | 0.00 | 0.00 | 83 | 1018.2 |
| 20260831233023 | 83 | 0 | 0.0 | 0.0 | 0.00 | 0.01 | 0.00 | 82 | 1018.1 |
| 20260831232002 | 83 | 0 | 0.0 | 0.0 | 0.00 | 0.01 | 0.00 | 81 | 1018.2 |
| 20260831231043 | 83 | 29 | 0.0 | 0.9 | 0.00 | 0.01 | 0.00 | 81 | 1018.1 |
| 20260831230023 | 83 | 29 | 0.0 | 0.9 | 0.00 | 0.01 | 0.00 | 81 | 1018.2 |
| 20260831225105 | 83 | 28 | 0.0 | 1.7 | 0.00 | 0.01 | 0.00 | 81 | 1018.3 |
| 20260831224001 | 84 | 28 | 0.0 | 1.7 | 0.00 | 0.01 | 0.00 | 80 | 1018.5 |
| 20260831223022 | 84 | 28 | 0.0 | 1.7 | 0.00 | 0.01 | 0.00 | 78 | 1018.5 |
| 20260831222002 | 84 | 0 | 0.0 | 0.0 | 0.00 | 0.01 | 0.00 | 75 | 1018.6 |
| 20260831221022 | 84 | 0 | 0.0 | 0.0 | 0.00 | 0.02 | 0.00 | 75 | 1018.8 |
| 20260831220023 | 84 | 0 | 0.0 | 0.0 | 0.00 | 0.02 | 0.00 | 76 | 1018.8 |
| 20260831215002 | 84 | 0 | 0.0 | 0.0 | 0.00 | 0.05 | 0.00 | 75 | 1018.8 |
| 20260831214002 | 84 | 0 | 0.0 | 0.0 | 0.00 | 0.23 | 0.00 | 76 | 1018.7 |
| 20260831213002 | 84 | 27 | 0.0 | 2.6 | 0.00 | 0.26 | 0.00 | 74 | 1018.7 |
| 20260831212044 | 85 | 28 | 0.9 | 2.6 | 0.00 | 0.26 | 0.00 | 74 | 1018.7 |
| 20260831211002 | 85 | 28 | 0.9 | 2.6 | 0.00 | 0.26 | 0.00 | 74 | 1018.7 |
| 20260831210002 | 85 | 28 | 0.0 | 2.6 | 0.00 | 0.26 | 0.00 | 74 | 1018.7 |
| 20260831205023 | 86 | 28 | 0.0 | 1.7 | 0.00 | 0.26 | 0.00 | 73 | 1018.7 |
| 20260831204002 | 86 | 28 | 0.0 | 1.7 | 0.00 | 0.26 | 0.00 | 73 | 1018.8 |
| 20260831203002 | 86 | 28 | 0.0 | 0.9 | 0.00 | 0.26 | 0.00 | 73 | 1018.8 |
| 20260831202002 | 86 | 28 | 0.0 | 1.7 | 0.00 | 0.26 | 0.00 | 71 | 1018.7 |
| 20260831201002 | 86 | 28 | 0.0 | 1.7 | 0.00 | 0.26 | 0.00 | 71 | 1018.8 |
| 20260831200002 | 86 | 28 | 0.9 | 2.6 | 0.00 | 0.26 | 0.00 | 70 | 1018.7 |
| 20260831195023 | 86 | 12 | 0.9 | 2.6 | 0.00 | 0.26 | 0.00 | 69 | 1018.8 |
| 20260831194023 | 86 | 349 | 0.9 | 2.6 | 0.00 | 0.26 | 0.00 | 73 | 1018.7 |
| 20260831193023 | 86 | 346 | 0.0 | 2.6 | 0.00 | 0.26 | 0.00 | 71 | 1018.8 |
| 20260831192044 | 86 | 320 | 0.0 | 2.6 | 0.00 | 0.26 | 0.00 | 71 | 1019.0 |
| 20260831191002 | 87 | 311 | 0.0 | 1.7 | 0.00 | 0.26 | 0.00 | 70 | 1019.2 |
| 20260831190002 | 87 | 311 | 0.0 | 1.7 | 0.00 | 0.26 | 0.00 | 71 | 1019.2 |
| 20260831185023 | 88 | 359 | 0.0 | 2.6 | 0.00 | 0.26 | 0.00 | 69 | 1019.3 |
| 20260831184002 | 88 | 23 | 0.0 | 1.7 | 0.00 | 0.26 | 0.00 | 71 | 1019.3 |
| 20260831183023 | 88 | 171 | 0.0 | 3.5 | 0.00 | 0.26 | 0.00 | 70 | 1019.3 |
| 20260831182044 | 87 | 235 | 0.0 | 3.5 | 0.00 | 0.26 | 0.00 | 72 | 1019.4 |
| 20260831181002 | 87 | 259 | 0.0 | 1.7 | 0.00 | 0.26 | 0.00 | 70 | 1019.3 |
| 20260831180002 | 87 | 259 | 0.0 | 2.6 | 0.00 | 0.26 | 0.00 | 70 | 1019.4 |